Aéroclub Cannes UACA

Aéroclub Cannes UACA
UACA
Approuvé A.T.O. EASA – N°FR.ATO.0108

UACA, UNION des aéroclubs
Cannes “Ailes d’Azur”, Nice “Côte d’Azur”, Grasse “St Exupery”, ACCA “Francis Séverac”

Un cache-pitot se trouve à bord de chaque avion. Pensez à le mettre en place à la fin de chaque vol !

Avant de quitter l'avion, vérifiez que vous n'emportez pas la checklist

Un vol ne s'entreprend qu'avec un pare-brise parfaitement propre, il en va de votre sécurité, et de celle des autres

Après chaque vol, merci de mettre en place les pares-soleil!


Météo à Cannes:
METAR
LFMD 242130Z AUTO VRB02KT CAVOK 25/12 Q1012 =
LFMD 241400Z 2415/2515 20012KT CAVOK PROB40 TEMPO 2415/2417 21015G25KT FEW040TCU PROB30 TEMPO 2415/2417 -TSRA FEW040CB BECMG 2417/2419 26010KT BECMG 2502/2504 36005KT BECMG 2508/2510 17010KT

TAF
LFMD 241400Z 2415/2515 20012KT CAVOK PROB40 TEMPO 2415/2417 21015G25KT FEW040TCU PROB30 TEMPO 2415/2417 -TSRA FEW040CB BECMG 2417/2419 26010KT BECMG 2502/2504 36005KT BECMG 2508/2510 17010KT =

SR / SS: 03:46 / 19:22 UTC (LFMD 2022-06-24)